Weather History for KMOD - June, 2014

Change the Weather History Date:

Tuesday, June 3, 2014

  Actual Average Record
Temperature  
Mean Temperature 70 °F -  
Max Temperature 87 °F 87 °F 109 °F (1960)
Min Temperature 53 °F 58 °F 45 °F (1982)
Degree Days  
Heating Degree Days 0 0  
Month to date heating degree days 0 0  
Since 1 June heating degree days 0 0  
Since 1 July heating degree days 1969 2168  
Cooling Degree Days 5 8  
Month to date cooling degree days 22 22  
Year to date cooling degree days 274 221  
Since 1 June cooling degree days 22 22  
Growing Degree Days 20 (Base 50)    
Moisture  
Dew Point 48 °F    
Average Humidity 57    
Maximum Humidity 89    
Minimum Humidity 25    
Precipitation  
Precipitation 0.00 in 0.00 in 0.14 in (1945)
Month to date precipitation 0.00 0.02  
Year to date precipitation 5.51 8.65  
Since 1 July precipitation 7.00  
Snow  
Snow 0.00 in - - ()
Month to date snowfall 0.0  
Since 1 June snowfall 0.0  
Since 1 July snowfall 0.0  
Snow Depth -    
Sea Level Pressure  
Sea Level Pressure 29.85 in    
Wind  
Wind Speed 8 mph (NNW)    
Max Wind Speed 12 mph    
Max Gust Speed 17 mph    
Visibility 10 miles    
Events      
T = Trace of Precipitation, MM = Missing Value Source: NWS Daily Summary

Daily Weather History Graph

Daily Weather History Graph

Search for Another Location

Airport or City:

Trip Planner

Search our weather history database for the weather conditions in past years. The results will help you decide how hot, cold, wet, or windy it might be!

Date:

Astronomy

Jun. 03, 2014 Rise Set
Actual Time 5:43 AM PDT 8:21 PM PDT
Civil Twilight 5:12 AM PDT 8:51 PM PDT
Nautical Twilight 4:34 AM PDT 9:30 PM PDT
Astronomical Twilight 3:51 AM PDT 10:13 PM PDT
Moon 11:07 AM PDT (6/3) No Moon Set
Length of Visible Light 15h 39m
Length of Day
14h 37m
Waxing Crescent, 31% of the Moon is Illuminated
Jun 3
Waxing Crescent
Jun 5
First Quarter
Jun 12
Full
Jun 19
Last Quarter
Jun 27
New

Hourly Weather History & Observations

Time (PDT) Temp. Dew Point Humidity Pressure Visibility Wind Dir Wind Speed Gust Speed Precip Events Conditions
12:53 AM 59.0 °F 50.0 °F 72% 29.85 in 10.0 mi NNW 9.2 mph - N/A   Clear
1:53 AM 57.0 °F 50.0 °F 77% 29.85 in 10.0 mi NNW 8.1 mph - N/A   Clear
2:53 AM 55.0 °F 50.0 °F 83% 29.85 in 10.0 mi WNW 4.6 mph - N/A   Clear
3:53 AM 55.0 °F 50.0 °F 83% 29.85 in 10.0 mi North 6.9 mph - N/A   Clear
4:53 AM 54.0 °F 50.0 °F 86% 29.86 in 10.0 mi NNW 6.9 mph - N/A   Clear
5:53 AM 53.1 °F 48.9 °F 86% 29.88 in 10.0 mi North 4.6 mph - N/A   Clear
6:53 AM 55.0 °F 50.0 °F 83% 29.91 in 10.0 mi North 8.1 mph - N/A   Clear
7:53 AM 57.9 °F 50.0 °F 75% 29.91 in 10.0 mi North 4.6 mph - N/A   Clear
8:53 AM 62.1 °F 50.0 °F 65% 29.92 in 10.0 mi NNW 9.2 mph - N/A   Clear
9:53 AM 64.0 °F 50.0 °F 60% 29.92 in 10.0 mi NNW 6.9 mph - N/A   Clear
10:53 AM 69.1 °F 48.9 °F 49% 29.91 in 10.0 mi NW 6.9 mph - N/A   Clear
11:53 AM 73.9 °F 48.9 °F 41% 29.90 in 10.0 mi NNW 5.8 mph - N/A   Clear
12:53 PM 77.0 °F 46.9 °F 34% 29.88 in 10.0 mi NNW 6.9 mph - N/A   Clear
1:53 PM 82.0 °F 46.0 °F 28% 29.86 in 10.0 mi Variable 4.6 mph - N/A   Clear
2:53 PM 82.0 °F 46.0 °F 28% 29.83 in 104.0 mi Calm Calm - N/A   Haze
3:53 PM 86.0 °F 48.0 °F 27% 29.82 in 10.0 mi North 11.5 mph 17.3 mph N/A   Clear
4:53 PM 86.0 °F 46.9 °F 26% 29.80 in 10.0 mi NW 9.2 mph - N/A   Clear
5:53 PM 86.0 °F 46.9 °F 26% 29.79 in 10.0 mi NNW 10.4 mph - N/A   Clear
6:53 PM 84.9 °F 44.1 °F 24% 29.79 in 10.0 mi NNW 10.4 mph - N/A   Clear
7:53 PM 81.0 °F 46.0 °F 29% 29.79 in 10.0 mi NW 11.5 mph - N/A   Clear
8:53 PM 75.9 °F 48.0 °F 37% 29.80 in 10.0 mi NW 9.2 mph - N/A   Clear
9:53 PM 73.0 °F 48.9 °F 42% 29.81 in 10.0 mi NW 11.5 mph - N/A   Clear